Weather History for CYQG - December, 2012

Change the Weather History Date:

Sunday, December 9, 2012

  Actual Average Record
Temperature  
Mean Temperature 38 °F -  
Max Temperature 42 °F 34 °F 50 °F (1999)
Min Temperature 33 °F 20 °F 8 °F (2002)
Degree Days  
Heating Degree Days 28    
Moisture  
Dew Point 35 °F    
Average Humidity 89    
Maximum Humidity 100    
Minimum Humidity 70    
Precipitation  
Precipitation 0.12 in 0.09 in - ()
Sea Level Pressure  
Sea Level Pressure 30.02 in    
Wind  
Wind Speed 9 mph ()    
Max Wind Speed 21 mph    
Max Gust Speed 24 mph    
Visibility 8.0 miles    
Events Fog , Rain , Snow    
Averages and records for this station are not official NWS values.
T = Trace of Precipitation, MM = Missing Value Source: Averaged Metar Reports

Daily Weather History Graph

Daily Weather History Graph

Search for Another Location

Airport or City:

Trip Planner

Search our weather history database for the weather conditions in past years. The results will help you decide how hot, cold, wet, or windy it might be!

Date:

Astronomy

Dec. 09, 2012 Rise Set
Actual Time 7:49 AM EST 4:59 PM EST
Civil Twilight 7:17 AM EST 5:31 PM EST
Nautical Twilight 6:42 AM EST 6:06 PM EST
Astronomical Twilight 6:08 AM EST 6:40 PM EST
Moon 3:17 AM EST (12/9) 2:08 PM EST (12/9)
Length of Visible Light 10h 13m
Length of Day
9h 10m
Waning Crescent, 19% of the Moon is Illuminated
Dec 9
Waning Crescent
Dec 13
New
Dec 20
First Quarter
Dec 28
Full
Jan 4
Last Quarter

Hourly Weather History & Observations

Time (EST) Temp. Windchill Dew Point Humidity Pressure Visibility Wind Dir Wind Speed Gust Speed Precip Events Conditions
12:00 AM 35.6 °F 29.9 °F 32.0 °F 87% 30.19 in 15.0 mi NNE 6.9 mph - N/A   Overcast
12:32 AM - - - N/A% - 7.0 mi NE 5.8 mph - N/A   Unknown
12:50 AM - - - N/A% - 10.0 mi NE 6.9 mph - N/A   Overcast
1:00 AM 36 °F - 32 °F 81% 30.20 in 12 mi NE 9.2 mph - - Snow Light Snow Showers
1:00 AM 35.6 °F 29.2 °F 32.0 °F 87% 30.20 in 12.0 mi NE 8.1 mph - N/A   Overcast
2:00 AM 35.6 °F 29.9 °F 32.0 °F 87% 30.20 in 15.0 mi NE 6.9 mph - N/A   Overcast
3:00 AM 35.6 °F 28.6 °F 32.0 °F 87% 30.20 in 15.0 mi East 9.2 mph - N/A   Overcast
4:00 AM 35.6 °F 28.6 °F 30.2 °F 81% 30.19 in 15.0 mi East 9.2 mph - N/A   Overcast
5:00 AM 35.6 °F 29.2 °F 30.2 °F 81% 30.19 in 15.0 mi East 8.1 mph - N/A   Overcast
6:00 AM 35.6 °F 28.0 °F 28.4 °F 75% 30.19 in 15.0 mi East 10.4 mph - N/A   Overcast
7:00 AM 35 °F - 29 °F 70% 30.19 in 15 mi East 11.5 mph - -   Overcast
7:00 AM 35.6 °F 27.1 °F 28.4 °F 75% 30.19 in 15.0 mi East 12.7 mph - N/A   Overcast
8:00 AM 33.8 °F 24.3 °F 28.4 °F 81% 30.18 in 15.0 mi ENE 13.8 mph - N/A   Overcast
9:00 AM 35.6 °F 27.5 °F 30.2 °F 81% 30.15 in 15.0 mi East 11.5 mph - N/A   Mostly Cloudy
10:00 AM 35.6 °F 26.6 °F 32.0 °F 87% 30.12 in 15.0 mi ENE 13.8 mph 19.6 mph N/A   Mostly Cloudy
10:21 AM - - - N/A% - 15.0 mi ENE 12.7 mph 18.4 mph N/A   Overcast
11:00 AM 37.4 °F 29.8 °F 33.8 °F 87% 30.10 in 15.0 mi ENE 11.5 mph - N/A   Overcast
12:00 PM 39.2 °F 29.3 °F 35.6 °F 87% 30.05 in 15.0 mi East 20.7 mph - N/A   Overcast
12:14 PM - - - N/A% - 15.0 mi East 17.3 mph 23.0 mph N/A Rain Light Rain Showers
1:00 PM 38 °F - 36 °F 87% 30.01 in 7 mi East 18.4 mph - - Rain Light Rain Showers
1:00 PM 39.2 °F 30.2 °F 35.6 °F 87% 30.01 in 7.0 mi East 17.3 mph 24.2 mph N/A Rain Light Rain Showers
1:13 PM - - - N/A% - 2.5 mi East 16.1 mph - N/A Rain Light Rain
1:53 PM - - - N/A% - 2.0 mi ENE 16.1 mph - N/A Rain Light Rain
2:00 PM 35.6 °F 25.5 °F 35.6 °F 100% 29.97 in 3.0 mi ENE 17.3 mph - N/A Rain Light Rain
3:00 PM 35.6 °F 25.9 °F 35.6 °F 100% 29.92 in 6.0 mi ENE 16.1 mph 23.0 mph N/A Rain Light Rain
4:00 PM 37.4 °F 28.2 °F 35.6 °F 93% 29.88 in 6.0 mi ENE 16.1 mph - N/A Rain Light Rain
5:00 PM 37.4 °F 29.8 °F 37.4 °F 100% 29.85 in 6.0 mi East 11.5 mph - N/A Rain Light Rain
6:00 PM 39.2 °F 35.0 °F 39.2 °F 100% 29.84 in 5.0 mi NE 5.8 mph - N/A Rain Light Rain
6:47 PM - - - N/A% - 1.2 mi East 6.9 mph - N/A Rain Light Rain
6:53 PM - - - N/A% - 1.0 mi ENE 6.9 mph - N/A Rain Light Rain
7:00 PM 39 °F - 39 °F 100% 29.79 in 1 mi ENE 6.9 mph - - Rain Light Rain
7:00 PM 39.2 °F 34.2 °F 39.2 °F 100% 29.79 in 1.0 mi ENE 6.9 mph - N/A Rain Light Rain
7:36 PM - - - N/A% - 0.8 mi East 3.5 mph - N/A Rain Light Rain
8:00 PM 41.0 °F - 41.0 °F 100% 29.76 in 0.8 mi Calm Calm - N/A Rain Light Rain
8:23 PM - - - N/A% - 0.6 mi Calm Calm - N/A   Light Drizzle
9:00 PM 41.0 °F - 41.0 °F 100% 29.74 in 0.2 mi Calm Calm - N/A Fog Light Drizzle
10:00 PM 42.8 °F - 42.8 °F 100% 29.71 in 0.4 mi Calm Calm - N/A Fog Fog
11:00 PM 42.8 °F - 42.8 °F 100% 29.68 in 0.4 mi North 2.3 mph - N/A Fog Fog
11:08 PM - - - N/A% - 0.1 mi North 2.3 mph - N/A Fog Fog
11:51 PM - - - N/A% - 0.1 mi North 2.3 mph - N/A Fog , Rain Light Rain